When you browse on this site, cookies collect data to enhance your experience and personalize the content and advertising you see.
Visit our Privacy Policy to learn more. By continuing to use the site, you agree to this use of cookies and data.

Hourly Weather Corozal

Today, 7 August, Friday

Time Temperature Precipitation Wind Pressure Humidity
00:00 +26°C° 0.7 mm 2 mps 759 mmHg 97%
01:00 +26°C° 0.5 mm 2 mps 759 mmHg 96%
02:00 +26°C° 0.5 mm 2 mps 758 mmHg 96%
03:00 +26°C° 0.5 mm 2 mps 757 mmHg 96%
04:00 +26°C° 0.3 mm 2 mps 758 mmHg 96%
05:00 +26°C° 0.3 mm 2 mps 758 mmHg 96%
06:00 +27°C° 0.3 mm 2 mps 758 mmHg 96%
07:00 +28°C° 0.7 mm 3 mps 759 mmHg 93%
08:00 +29°C° 0.7 mm 3 mps 759 mmHg 90%
09:00 +30°C° 0.7 mm 4 mps 760 mmHg 87%
10:00 +32°C° 0.3 mm 4 mps 760 mmHg 78%
11:00 +33°C° 0.3 mm 5 mps 760 mmHg 70%
12:00 +34°C° 0.3 mm 5 mps 760 mmHg 61%
13:00 +34°C° 0.2 mm 5 mps 759 mmHg 64%
14:00 +33°C° 0.2 mm 4 mps 758 mmHg 67%
15:00 +33°C° 0.2 mm 4 mps 758 mmHg 70%
16:00 +30°C° 0.4 mm 4 mps 758 mmHg 76%
17:00 +29°C° 0.4 mm 3 mps 759 mmHg 82%
18:00 +28°C° 0.4 mm 3 mps 759 mmHg 88%
19:00 +27°C° 0.3 mm 3 mps 759 mmHg 90%
20:00 +27°C° 0.3 mm 3 mps 760 mmHg 93%
21:00 +26°C° 0.3 mm 3 mps 760 mmHg 95%
22:00 +26°C° 0 mm 3 mps 760 mmHg 95%
23:00 +26°C° 0 mm 3 mps 760 mmHg 95%

Tomorrow, 8 August, Saturday

Time Temperature Precipitation Wind Pressure Humidity
00:00 +26°C° 0 mm 3 mps 760 mmHg 95%
01:00 +26°C° 0 mm 3 mps 760 mmHg 95%
02:00 +27°C° 0 mm 2 mps 759 mmHg 94%
03:00 +27°C° 0 mm 2 mps 759 mmHg 94%
04:00 +27°C° 0.2 mm 2 mps 759 mmHg 94%
05:00 +26°C° 0.2 mm 2 mps 759 mmHg 95%
06:00 +26°C° 0.2 mm 2 mps 760 mmHg 95%
07:00 +28°C° 0.2 mm 3 mps 760 mmHg 90%
08:00 +29°C° 0.2 mm 3 mps 760 mmHg 84%
09:00 +32°C° 0.2 mm 4 mps 761 mmHg 79%
10:00 +33°C° 0.3 mm 4 mps 761 mmHg 73%
11:00 +34°C° 0.3 mm 4 mps 761 mmHg 67%
12:00 +35°C° 0.3 mm 4 mps 761 mmHg 62%
13:00 +35°C° 0.1 mm 4 mps 760 mmHg 61%
14:00 +35°C° 0.1 mm 4 mps 759 mmHg 60%
15:00 +35°C° 0.1 mm 4 mps 759 mmHg 60%
16:00 +33°C° 0 mm 3 mps 759 mmHg 66%
17:00 +31°C° 0 mm 3 mps 759 mmHg 72%
18:00 +30°C° 0 mm 3 mps 759 mmHg 77%
19:00 +29°C° 0 mm 3 mps 760 mmHg 82%
20:00 +28°C° 0 mm 3 mps 760 mmHg 86%
21:00 +27°C° 0 mm 3 mps 761 mmHg 91%
22:00 +27°C° 0 mm 2 mps 761 mmHg 91%
23:00 +27°C° 0 mm 2 mps 761 mmHg 92%

Day after tomorrow, 9 August, Sunday

Time Temperature Precipitation Wind Pressure Humidity
00:00 +27°C° 0 mm 2 mps 760 mmHg 93%
01:00 +27°C° 0 mm 2 mps 760 mmHg 94%
02:00 +27°C° 0 mm 2 mps 760 mmHg 95%
03:00 +26°C° 0 mm 2 mps 759 mmHg 95%
04:00 +27°C° 0.2 mm 2 mps 759 mmHg 96%
05:00 +27°C° 0.2 mm 2 mps 759 mmHg 96%
06:00 +27°C° 0.2 mm 2 mps 760 mmHg 97%
07:00 +28°C° 0.6 mm 2 mps 760 mmHg 93%
08:00 +29°C° 0.6 mm 3 mps 760 mmHg 90%
09:00 +30°C° 0.6 mm 3 mps 761 mmHg 87%
10:00 +30°C° 1.6 mm 3 mps 761 mmHg 87%
11:00 +31°C° 1.6 mm 3 mps 760 mmHg 87%
12:00 +31°C° 1.6 mm 3 mps 760 mmHg 87%
13:00 +30°C° 2.5 mm 3 mps 760 mmHg 87%
14:00 +30°C° 2.5 mm 3 mps 759 mmHg 88%
15:00 +30°C° 2.5 mm 3 mps 759 mmHg 88%
16:00 +29°C° 1.2 mm 3 mps 759 mmHg 90%
17:00 +29°C° 1.2 mm 3 mps 759 mmHg 92%
18:00 +28°C° 1.2 mm 3 mps 759 mmHg 94%
19:00 +27°C° 1.1 mm 3 mps 759 mmHg 94%
20:00 +27°C° 1.1 mm 3 mps 760 mmHg 95%
21:00 +27°C° 1.1 mm 2 mps 760 mmHg 95%
22:00 +27°C° 0.1 mm 2 mps 760 mmHg 95%
23:00 +27°C° 0.1 mm 2 mps 760 mmHg 96%

10 August, Monday

Time Temperature Precipitation Wind Pressure Humidity
00:00 +27°C° 0.1 mm 2 mps 760 mmHg 96%
01:00 +27°C° 0.1 mm 2 mps 759 mmHg 96%
02:00 +27°C° 0.1 mm 2 mps 759 mmHg 96%
03:00 +27°C° 0.1 mm 3 mps 758 mmHg 96%
04:00 +27°C° 0 mm 2 mps 759 mmHg 96%
05:00 +27°C° 0 mm 2 mps 759 mmHg 96%
06:00 +27°C° 0 mm 2 mps 759 mmHg 95%
07:00 +28°C° 0.3 mm 3 mps 759 mmHg 92%
08:00 +29°C° 0.3 mm 3 mps 760 mmHg 88%
09:00 +32°C° 0.3 mm 4 mps 760 mmHg 84%
10:00 +33°C° 0.5 mm 4 mps 760 mmHg 77%
11:00 +34°C° 0.5 mm 4 mps 760 mmHg 71%
12:00 +35°C° 0.5 mm 4 mps 759 mmHg 64%
13:00 +35°C° 0.2 mm 4 mps 759 mmHg 64%
14:00 +35°C° 0.2 mm 4 mps 758 mmHg 63%
15:00 +35°C° 0.2 mm 4 mps 758 mmHg 62%
16:00 +33°C° 0 mm 4 mps 758 mmHg 68%
17:00 +31°C° 0 mm 3 mps 758 mmHg 74%
18:00 +30°C° 0 mm 3 mps 758 mmHg 80%
19:00 +29°C° 0.1 mm 3 mps 758 mmHg 84%
20:00 +28°C° 0.1 mm 3 mps 759 mmHg 88%
21:00 +28°C° 0.1 mm 2 mps 759 mmHg 92%
22:00 +27°C° 0.1 mm 2 mps 759 mmHg 93%
23:00 +27°C° 0.1 mm 2 mps 759 mmHg 94%

11 August, Tuesday

Time Temperature Precipitation Wind Pressure Humidity
00:00 +27°C° 0.1 mm 2 mps 759 mmHg 95%
01:00 +27°C° 0.2 mm 2 mps 758 mmHg 95%
02:00 +27°C° 0.2 mm 2 mps 758 mmHg 96%
03:00 +27°C° 0.2 mm 2 mps 757 mmHg 96%
04:00 +27°C° 0 mm 2 mps 758 mmHg 96%
05:00 +27°C° 0 mm 2 mps 758 mmHg 96%
06:00 +27°C° 0 mm 2 mps 758 mmHg 95%
07:00 +28°C° 0.4 mm 2 mps 758 mmHg 92%
08:00 +29°C° 0.4 mm 2 mps 759 mmHg 89%
09:00 +30°C° 0.4 mm 2 mps 759 mmHg 86%
10:00 +31°C° 0.4 mm 2 mps 759 mmHg 82%
11:00 +33°C° 0.4 mm 3 mps 759 mmHg 78%
12:00 +34°C° 0.4 mm 3 mps 759 mmHg 73%
13:00 +34°C° 0.1 mm 3 mps 758 mmHg 69%
14:00 +34°C° 0.1 mm 3 mps 757 mmHg 65%
15:00 +35°C° 0.1 mm 3 mps 757 mmHg 61%
16:00 +33°C° 0 mm 3 mps 757 mmHg 68%
17:00 +31°C° 0 mm 2 mps 757 mmHg 76%
18:00 +30°C° 0 mm 2 mps 757 mmHg 83%
19:00 +29°C° 0 mm 2 mps 758 mmHg 86%
20:00 +28°C° 0 mm 2 mps 758 mmHg 89%
21:00 +27°C° 0 mm 2 mps 759 mmHg 93%
22:00 +27°C° 0.1 mm 2 mps 759 mmHg 94%
23:00 +27°C° 0.1 mm 2 mps 759 mmHg 94%

12 August, Wednesday

Time Temperature Precipitation Wind Pressure Humidity
00:00 +27°C° 0.1 mm 2 mps 758 mmHg 95%
01:00 +27°C° 0.2 mm 1 mps 758 mmHg 96%
02:00 +26°C° 0.2 mm 1 mps 758 mmHg 96%
03:00 +26°C° 0.2 mm 1 mps 757 mmHg 96%
04:00 +26°C° 0 mm 1 mps 757 mmHg 96%
05:00 +26°C° 0 mm 1 mps 758 mmHg 97%
06:00 +26°C° 0 mm 1 mps 758 mmHg 97%
07:00 +28°C° 0 mm 1 mps 758 mmHg 89%
08:00 +30°C° 0 mm 2 mps 759 mmHg 81%
09:00 +32°C° 0 mm 2 mps 759 mmHg 73%
10:00 +32°C° 0.3 mm 2 mps 759 mmHg 69%
11:00 +34°C° 0.3 mm 3 mps 759 mmHg 64%
12:00 +35°C° 0.3 mm 3 mps 758 mmHg 60%
13:00 +35°C° 0.1 mm 3 mps 758 mmHg 60%
14:00 +35°C° 0.1 mm 4 mps 757 mmHg 59%
15:00 +35°C° 0.1 mm 4 mps 757 mmHg 59%
16:00 +33°C° 0 mm 3 mps 757 mmHg 66%
17:00 +31°C° 0 mm 3 mps 757 mmHg 74%
18:00 +29°C° 0 mm 2 mps 757 mmHg 81%
19:00 +29°C° 0 mm 2 mps 758 mmHg 84%
20:00 +28°C° 0 mm 2 mps 758 mmHg 88%
21:00 +27°C° 0 mm 2 mps 759 mmHg 91%
22:00 +27°C° 0 mm 2 mps 758 mmHg 92%
23:00 +26°C° 0 mm 2 mps 758 mmHg 93%
Show more